Location: College Rock
(37.2713°N, 119.1740°W)
Time: 06:04:52
(UTC+00:00)

ADEOS - Pass Details

Date: 29 October 2020
Orbit: 793 x 794 km, 98.9° (Epoch: 27 November)

Event Time Altitude Azimuth Distance (km) Brightness Sun altitude
Rises 12:41:15 0° 10° (N) 3,301 6.9 -19.9°
Reaches altitude 10° 12:43:35 10° 8° (N) 2,368 6.1 -19.5°
Maximum altitude 12:48:47 69° 286° (WNW) 847 3.5 -18.4°
Drops below altitude 10° 12:53:57 10° 204° (SSW) 2,353 5.8 -17.4°
Sets 12:56:16 0° 202° (SSW) 3,278 6.6 -16.9°
